<?xml version="1.0" encoding="UTF-8" standalone="no" ?>
<gpx xmlns="http://www.topografix.com/GPX/1/1" xmlns:xsi="http://www.w3.org/2001/XMLSchema-instance" xsi:schemaLocation="http://www.topografix.com/GPX/1/1 http://www.topografix.com/GPX/1/1/gpx.xsd" version="1.1" creator="VisuGPX - https://www.visugpx.com">
  <metadata>
    <name>tour de bretagne</name>
    <desc><![CDATA[tracé 2008]]></desc>
  </metadata>
  <trk>
    <name><![CDATA[fusion]]></name>
    <trkseg>
      <trkpt lat="48.54772" lon="-2.5971">
        <ele>-1000</ele>
        <time>2007-05-30T14:08:43Z</time>
      </trkpt>
      <trkpt lat="48.54834" lon="-2.59723">
        <ele>-1000</ele>
        <time>2007-05-30T14:08:43Z</time>
      </trkpt>
      <trkpt lat="48.54837" lon="-2.59609">
        <ele>-1000</ele>
        <time>2007-05-30T14:08:43Z</time>
      </trkpt>
      <trkpt lat="48.54971" lon="-2.59551">
        <ele>-1000</ele>
        <time>2007-05-30T14:08:43Z</time>
      </trkpt>
      <trkpt lat="48.55036" lon="-2.59509">
        <ele>-1000</ele>
        <time>2007-05-30T14:08:43Z</time>
      </trkpt>
      <trkpt lat="48.55024" lon="-2.59399">
        <ele>-1000</ele>
        <time>2007-05-30T14:08:43Z</time>
      </trkpt>
      <trkpt lat="48.55008" lon="-2.59364">
        <ele>-1000</ele>
        <time>2007-05-30T14:08:43Z</time>
      </trkpt>
      <trkpt lat="48.54952" lon="-2.59343">
        <ele>-1000</ele>
        <time>2007-05-30T14:08:43Z</time>
      </trkpt>
      <trkpt lat="48.5489" lon="-2.59304">
        <ele>-1000</ele>
        <time>2007-05-30T14:08:43Z</time>
      </trkpt>
      <trkpt lat="48.54873" lon="-2.59249">
        <ele>-1000</ele>
        <time>2007-05-30T14:08:43Z</time>
      </trkpt>
      <trkpt lat="48.54927" lon="-2.58915">
        <ele>-1000</ele>
        <time>2007-05-30T14:08:43Z</time>
      </trkpt>
      <trkpt lat="48.54982" lon="-2.58862">
        <ele>-1000</ele>
        <time>2007-05-30T14:08:43Z</time>
      </trkpt>
      <trkpt lat="48.55072" lon="-2.58861">
        <ele>-1000</ele>
        <time>2007-05-30T14:08:43Z</time>
      </trkpt>
      <trkpt lat="48.55124" lon="-2.58839">
        <ele>-1000</ele>
        <time>2007-05-30T14:08:43Z</time>
      </trkpt>
      <trkpt lat="48.55143" lon="-2.58645">
        <ele>-1000</ele>
        <time>2007-05-30T14:08:43Z</time>
      </trkpt>
      <trkpt lat="48.55199" lon="-2.58612">
        <ele>-1000</ele>
        <time>2007-05-30T14:08:43Z</time>
      </trkpt>
      <trkpt lat="48.55247" lon="-2.58611">
        <ele>-1000</ele>
        <time>2007-05-30T14:08:43Z</time>
      </trkpt>
      <trkpt lat="48.55332" lon="-2.58516">
        <ele>-1000</ele>
        <time>2007-05-30T14:08:43Z</time>
      </trkpt>
      <trkpt lat="48.55333" lon="-2.5848">
        <ele>-1000</ele>
        <time>2007-05-30T14:08:43Z</time>
      </trkpt>
      <trkpt lat="48.55317" lon="-2.58397">
        <ele>-1000</ele>
        <time>2007-05-30T14:08:43Z</time>
      </trkpt>
      <trkpt lat="48.55312" lon="-2.58311">
        <ele>-1000</ele>
        <time>2007-05-30T14:08:43Z</time>
      </trkpt>
      <trkpt lat="48.55286" lon="-2.58224">
        <ele>-1000</ele>
        <time>2007-05-30T14:08:43Z</time>
      </trkpt>
      <trkpt lat="48.55287" lon="-2.58144">
        <ele>-1000</ele>
        <time>2007-05-30T14:08:43Z</time>
      </trkpt>
      <trkpt lat="48.55307" lon="-2.58051">
        <ele>-1000</ele>
        <time>2007-05-30T14:08:43Z</time>
      </trkpt>
      <trkpt lat="48.55311" lon="-2.57966">
        <ele>-1000</ele>
        <time>2007-05-30T14:08:43Z</time>
      </trkpt>
      <trkpt lat="48.55347" lon="-2.57949">
        <ele>-1000</ele>
        <time>2007-05-30T14:08:43Z</time>
      </trkpt>
      <trkpt lat="48.55376" lon="-2.57921">
        <ele>-1000</ele>
        <time>2007-05-30T14:08:43Z</time>
      </trkpt>
      <trkpt lat="48.55327" lon="-2.57848">
        <ele>-1000</ele>
        <time>2007-05-30T14:08:43Z</time>
      </trkpt>
      <trkpt lat="48.55309" lon="-2.57753">
        <ele>-1000</ele>
        <time>2007-05-30T14:08:43Z</time>
      </trkpt>
      <trkpt lat="48.55286" lon="-2.57651">
        <ele>-1000</ele>
        <time>2007-05-30T14:08:43Z</time>
      </trkpt>
      <trkpt lat="48.55286" lon="-2.57496">
        <ele>-1000</ele>
        <time>2007-05-30T14:08:43Z</time>
      </trkpt>
      <trkpt lat="48.55271" lon="-2.57344">
        <ele>-1000</ele>
        <time>2007-05-30T14:08:43Z</time>
      </trkpt>
      <trkpt lat="48.55315" lon="-2.57339">
        <ele>-1000</ele>
        <time>2007-05-30T14:08:43Z</time>
      </trkpt>
      <trkpt lat="48.55488" lon="-2.57223">
        <ele>-1000</ele>
        <time>2007-05-30T14:08:43Z</time>
      </trkpt>
      <trkpt lat="48.55531" lon="-2.57207">
        <ele>-1000</ele>
        <time>2007-05-30T14:08:43Z</time>
      </trkpt>
      <trkpt lat="48.55595" lon="-2.57199">
        <ele>-1000</ele>
        <time>2007-05-30T14:08:43Z</time>
      </trkpt>
      <trkpt lat="48.5566" lon="-2.57178">
        <ele>-1000</ele>
        <time>2007-05-30T14:08:43Z</time>
      </trkpt>
      <trkpt lat="48.55665" lon="-2.57078">
        <ele>-1000</ele>
        <time>2007-05-30T14:08:43Z</time>
      </trkpt>
      <trkpt lat="48.55676" lon="-2.57066">
        <ele>-1000</ele>
        <time>2007-05-30T14:08:43Z</time>
      </trkpt>
      <trkpt lat="48.55711" lon="-2.57085">
        <ele>-1000</ele>
        <time>2007-05-30T14:08:43Z</time>
      </trkpt>
      <trkpt lat="48.55775" lon="-2.57077">
        <ele>-1000</ele>
        <time>2007-05-30T14:08:43Z</time>
      </trkpt>
      <trkpt lat="48.55791" lon="-2.57088">
        <ele>-1000</ele>
        <time>2007-05-30T14:08:43Z</time>
      </trkpt>
      <trkpt lat="48.55813" lon="-2.57125">
        <ele>-1000</ele>
        <time>2007-05-30T14:08:43Z</time>
      </trkpt>
      <trkpt lat="48.55859" lon="-2.57137">
        <ele>-1000</ele>
        <time>2007-05-30T14:08:43Z</time>
      </trkpt>
      <trkpt lat="48.55922" lon="-2.57118">
        <ele>-1000</ele>
        <time>2007-05-30T14:08:43Z</time>
      </trkpt>
      <trkpt lat="48.55964" lon="-2.57115">
        <ele>-1000</ele>
        <time>2007-05-30T14:08:43Z</time>
      </trkpt>
      <trkpt lat="48.55977" lon="-2.57068">
        <ele>-1000</ele>
        <time>2007-05-30T14:08:43Z</time>
      </trkpt>
      <trkpt lat="48.5597" lon="-2.56955">
        <ele>-1000</ele>
        <time>2007-05-30T14:08:43Z</time>
      </trkpt>
      <trkpt lat="48.56155" lon="-2.56671">
        <ele>-1000</ele>
        <time>2007-05-30T14:08:43Z</time>
      </trkpt>
      <trkpt lat="48.56186" lon="-2.56639">
        <ele>-1000</ele>
        <time>2007-05-30T14:08:43Z</time>
      </trkpt>
      <trkpt lat="48.56265" lon="-2.56455">
        <ele>-1000</ele>
        <time>2007-05-30T14:08:43Z</time>
      </trkpt>
      <trkpt lat="48.56308" lon="-2.56446">
        <ele>-1000</ele>
        <time>2007-05-30T14:08:43Z</time>
      </trkpt>
      <trkpt lat="48.56306" lon="-2.56426">
        <ele>-1000</ele>
        <time>2007-05-30T14:08:43Z</time>
      </trkpt>
      <trkpt lat="48.56364" lon="-2.56429">
        <ele>-1000</ele>
        <time>2007-05-30T14:08:43Z</time>
      </trkpt>
      <trkpt lat="48.56393" lon="-2.56272">
        <ele>-1000</ele>
        <time>2007-05-30T14:08:43Z</time>
      </trkpt>
      <trkpt lat="48.56426" lon="-2.56192">
        <ele>-1000</ele>
        <time>2007-05-30T14:08:43Z</time>
      </trkpt>
      <trkpt lat="48.56439" lon="-2.56123">
        <ele>-1000</ele>
        <time>2007-05-30T14:08:43Z</time>
      </trkpt>
      <trkpt lat="48.56406" lon="-2.55976">
        <ele>-1000</ele>
        <time>2007-05-30T14:08:43Z</time>
      </trkpt>
      <trkpt lat="48.56411" lon="-2.5593">
        <ele>-1000</ele>
        <time>2007-05-30T14:08:43Z</time>
      </trkpt>
      <trkpt lat="48.56438" lon="-2.559">
        <ele>-1000</ele>
        <time>2007-05-30T14:08:43Z</time>
      </trkpt>
      <trkpt lat="48.56492" lon="-2.55873">
        <ele>-1000</ele>
        <time>2007-05-30T14:08:43Z</time>
      </trkpt>
      <trkpt lat="48.56596" lon="-2.55863">
        <ele>-1000</ele>
        <time>2007-05-30T14:08:43Z</time>
      </trkpt>
      <trkpt lat="48.56556" lon="-2.55763">
        <ele>-1000</ele>
        <time>2007-05-30T14:08:43Z</time>
      </trkpt>
      <trkpt lat="48.56541" lon="-2.55667">
        <ele>-1000</ele>
        <time>2007-05-30T14:08:43Z</time>
      </trkpt>
      <trkpt lat="48.5654" lon="-2.55574">
        <ele>-1000</ele>
        <time>2007-05-30T14:08:43Z</time>
      </trkpt>
      <trkpt lat="48.56475" lon="-2.55416">
        <ele>-1000</ele>
        <time>2007-05-30T14:08:43Z</time>
      </trkpt>
      <trkpt lat="48.5641" lon="-2.55215">
        <ele>-1000</ele>
        <time>2007-05-30T14:08:43Z</time>
      </trkpt>
      <trkpt lat="48.56521" lon="-2.55095">
        <ele>-1000</ele>
        <time>2007-05-30T14:08:43Z</time>
      </trkpt>
      <trkpt lat="48.56619" lon="-2.55222">
        <ele>-1000</ele>
        <time>2007-05-30T14:08:43Z</time>
      </trkpt>
      <trkpt lat="48.56703" lon="-2.5518">
        <ele>-1000</ele>
        <time>2007-05-30T14:08:43Z</time>
      </trkpt>
      <trkpt lat="48.56759" lon="-2.5512">
        <ele>-1000</ele>
        <time>2007-05-30T14:08:43Z</time>
      </trkpt>
      <trkpt lat="48.56838" lon="-2.55095">
        <ele>-1000</ele>
        <time>2007-05-30T14:08:43Z</time>
      </trkpt>
      <trkpt lat="48.56876" lon="-2.55079">
        <ele>-1000</ele>
        <time>2007-05-30T14:08:43Z</time>
      </trkpt>
      <trkpt lat="48.569" lon="-2.55052">
        <ele>-1000</ele>
        <time>2007-05-30T14:08:43Z</time>
      </trkpt>
      <trkpt lat="48.56915" lon="-2.55061">
        <ele>-1000</ele>
        <time>2007-05-30T14:08:43Z</time>
      </trkpt>
      <trkpt lat="48.56937" lon="-2.5504">
        <ele>-1000</ele>
        <time>2007-05-30T14:08:43Z</time>
      </trkpt>
      <trkpt lat="48.57093" lon="-2.55164">
        <ele>-1000</ele>
        <time>2007-05-30T14:08:43Z</time>
      </trkpt>
      <trkpt lat="48.57264" lon="-2.55266">
        <ele>-1000</ele>
        <time>2007-05-30T14:08:43Z</time>
      </trkpt>
      <trkpt lat="48.57306" lon="-2.55334">
        <ele>-1000</ele>
        <time>2007-05-30T14:08:43Z</time>
      </trkpt>
      <trkpt lat="48.57365" lon="-2.55393">
        <ele>-1000</ele>
        <time>2007-05-30T14:08:43Z</time>
      </trkpt>
      <trkpt lat="48.57417" lon="-2.55398">
        <ele>-1000</ele>
        <time>2007-05-30T14:08:43Z</time>
      </trkpt>
      <trkpt lat="48.5747" lon="-2.55424">
        <ele>-1000</ele>
        <time>2007-05-30T14:08:43Z</time>
      </trkpt>
      <trkpt lat="48.57578" lon="-2.55436">
        <ele>-1000</ele>
        <time>2007-05-30T14:08:43Z</time>
      </trkpt>
      <trkpt lat="48.5762" lon="-2.55482">
        <ele>-1000</ele>
        <time>2007-05-30T14:08:43Z</time>
      </trkpt>
      <trkpt lat="48.57694" lon="-2.55699">
        <ele>-1000</ele>
        <time>2007-05-30T14:08:43Z</time>
      </trkpt>
      <trkpt lat="48.57742" lon="-2.55709">
        <ele>-1000</ele>
        <time>2007-05-30T14:08:43Z</time>
      </trkpt>
      <trkpt lat="48.57763" lon="-2.55674">
        <ele>-1000</ele>
        <time>2007-05-30T14:08:43Z</time>
      </trkpt>
      <trkpt lat="48.5775" lon="-2.55627">
        <ele>-1000</ele>
        <time>2007-05-30T14:08:43Z</time>
      </trkpt>
      <trkpt lat="48.57707" lon="-2.5559">
        <ele>-1000</ele>
        <time>2007-05-30T14:08:43Z</time>
      </trkpt>
      <trkpt lat="48.5771" lon="-2.55508">
        <ele>-1000</ele>
        <time>2007-05-30T14:08:43Z</time>
      </trkpt>
      <trkpt lat="48.57724" lon="-2.55469">
        <ele>-1000</ele>
        <time>2007-05-30T14:08:43Z</time>
      </trkpt>
      <trkpt lat="48.57758" lon="-2.55455">
        <ele>-1000</ele>
        <time>2007-05-30T14:08:43Z</time>
      </trkpt>
      <trkpt lat="48.57761" lon="-2.55392">
        <ele>-1000</ele>
        <time>2007-05-30T14:08:43Z</time>
      </trkpt>
      <trkpt lat="48.57779" lon="-2.55247">
        <ele>-1000</ele>
        <time>2007-05-30T14:08:43Z</time>
      </trkpt>
      <trkpt lat="48.57769" lon="-2.5508">
        <ele>-1000</ele>
        <time>2007-05-30T14:08:43Z</time>
      </trkpt>
      <trkpt lat="48.57772" lon="-2.55025">
        <ele>-1000</ele>
        <time>2007-05-30T14:08:43Z</time>
      </trkpt>
      <trkpt lat="48.57799" lon="-2.54943">
        <ele>-1000</ele>
        <time>2007-05-30T14:08:43Z</time>
      </trkpt>
      <trkpt lat="48.57768" lon="-2.54915">
        <ele>-1000</ele>
        <time>2007-05-30T14:08:43Z</time>
      </trkpt>
      <trkpt lat="48.57742" lon="-2.54846">
        <ele>-1000</ele>
        <time>2007-05-30T14:08:43Z</time>
      </trkpt>
      <trkpt lat="48.57741" lon="-2.54684">
        <ele>-1000</ele>
        <time>2007-05-30T14:08:43Z</time>
      </trkpt>
      <trkpt lat="48.57733" lon="-2.54568">
        <ele>-1000</ele>
        <time>2007-05-30T14:08:43Z</time>
      </trkpt>
      <trkpt lat="48.57745" lon="-2.54291">
        <ele>-1000</ele>
        <time>2007-05-30T14:08:43Z</time>
      </trkpt>
      <trkpt lat="48.5778" lon="-2.54176">
        <ele>-1000</ele>
        <time>2007-05-30T14:08:43Z</time>
      </trkpt>
      <trkpt lat="48.57681" lon="-2.54168">
        <ele>-1000</ele>
        <time>2007-05-30T14:08:43Z</time>
      </trkpt>
      <trkpt lat="48.57694" lon="-2.54091">
        <ele>-1000</ele>
        <time>2007-05-30T14:08:43Z</time>
      </trkpt>
      <trkpt lat="48.57636" lon="-2.54054">
        <ele>-1000</ele>
        <time>2007-05-30T14:08:43Z</time>
      </trkpt>
      <trkpt lat="48.57582" lon="-2.54049">
        <ele>-1000</ele>
        <time>2007-05-30T14:08:43Z</time>
      </trkpt>
      <trkpt lat="48.5754" lon="-2.54068">
        <ele>-1000</ele>
        <time>2007-05-30T14:08:43Z</time>
      </trkpt>
      <trkpt lat="48.57526" lon="-2.5403">
        <ele>-1000</ele>
        <time>2007-05-30T14:08:43Z</time>
      </trkpt>
      <trkpt lat="48.57457" lon="-2.53999">
        <ele>-1000</ele>
        <time>2007-05-30T14:08:43Z</time>
      </trkpt>
      <trkpt lat="48.57466" lon="-2.53877">
        <ele>-1000</ele>
        <time>2007-05-30T14:08:43Z</time>
      </trkpt>
      <trkpt lat="48.57378" lon="-2.53816">
        <ele>-1000</ele>
        <time>2007-05-30T14:08:43Z</time>
      </trkpt>
      <trkpt lat="48.57381" lon="-2.53752">
        <ele>-1000</ele>
        <time>2007-05-30T14:08:43Z</time>
      </trkpt>
      <trkpt lat="48.57374" lon="-2.53648">
        <ele>-1000</ele>
        <time>2007-05-30T14:08:43Z</time>
      </trkpt>
      <trkpt lat="48.57395" lon="-2.53619">
        <ele>-1000</ele>
        <time>2007-05-30T14:08:43Z</time>
      </trkpt>
      <trkpt lat="48.57427" lon="-2.53603">
        <ele>-1000</ele>
        <time>2007-05-30T14:08:43Z</time>
      </trkpt>
      <trkpt lat="48.57462" lon="-2.53533">
        <ele>-1000</ele>
        <time>2007-05-30T14:08:43Z</time>
      </trkpt>
      <trkpt lat="48.57501" lon="-2.53469">
        <ele>-1000</ele>
        <time>2007-05-30T14:08:43Z</time>
      </trkpt>
      <trkpt lat="48.57483" lon="-2.53424">
        <ele>-1000</ele>
        <time>2007-05-30T14:08:43Z</time>
      </trkpt>
      <trkpt lat="48.57485" lon="-2.53371">
        <ele>-1000</ele>
        <time>2007-05-30T14:08:43Z</time>
      </trkpt>
      <trkpt lat="48.57473" lon="-2.53311">
        <ele>-1000</ele>
        <time>2007-05-30T14:08:43Z</time>
      </trkpt>
      <trkpt lat="48.57476" lon="-2.53244">
        <ele>-1000</ele>
        <time>2007-05-30T14:08:43Z</time>
      </trkpt>
      <trkpt lat="48.57426" lon="-2.53202">
        <ele>-1000</ele>
        <time>2007-05-30T14:08:43Z</time>
      </trkpt>
      <trkpt lat="48.57434" lon="-2.53091">
        <ele>-1000</ele>
        <time>2007-05-30T14:08:43Z</time>
      </trkpt>
      <trkpt lat="48.57417" lon="-2.53037">
        <ele>-1000</ele>
        <time>2007-05-30T14:08:43Z</time>
      </trkpt>
      <trkpt lat="48.57428" lon="-2.52873">
        <ele>-1000</ele>
        <time>2007-05-30T14:08:43Z</time>
      </trkpt>
      <trkpt lat="48.57393" lon="-2.5268">
        <ele>-1000</ele>
        <time>2007-05-30T14:08:43Z</time>
      </trkpt>
      <trkpt lat="48.5739" lon="-2.52554">
        <ele>-1000</ele>
        <time>2007-05-30T14:08:43Z</time>
      </trkpt>
      <trkpt lat="48.57375" lon="-2.5245">
        <ele>-1000</ele>
        <time>2007-05-30T14:08:43Z</time>
      </trkpt>
      <trkpt lat="48.5742" lon="-2.52033">
        <ele>-1000</ele>
        <time>2007-05-30T14:08:43Z</time>
      </trkpt>
      <trkpt lat="48.57331" lon="-2.51929">
        <ele>-1000</ele>
        <time>2007-05-30T14:08:43Z</time>
      </trkpt>
      <trkpt lat="48.57545" lon="-2.51562">
        <ele>-1000</ele>
        <time>2007-05-30T14:08:43Z</time>
      </trkpt>
      <trkpt lat="48.57586" lon="-2.51532">
        <ele>-1000</ele>
        <time>2007-05-30T14:08:43Z</time>
      </trkpt>
      <trkpt lat="48.57613" lon="-2.51548">
        <ele>-1000</ele>
        <time>2007-05-30T14:08:43Z</time>
      </trkpt>
      <trkpt lat="48.57693" lon="-2.51536">
        <ele>-1000</ele>
        <time>2007-05-30T14:08:43Z</time>
      </trkpt>
      <trkpt lat="48.57684" lon="-2.51508">
        <ele>-1000</ele>
        <time>2007-05-30T14:08:43Z</time>
      </trkpt>
      <trkpt lat="48.5769" lon="-2.51476">
        <ele>-1000</ele>
        <time>2007-05-30T14:08:43Z</time>
      </trkpt>
      <trkpt lat="48.57885" lon="-2.51264">
        <ele>-1000</ele>
        <time>2007-05-30T14:08:43Z</time>
      </trkpt>
      <trkpt lat="48.57879" lon="-2.51245">
        <ele>-1000</ele>
        <time>2007-05-30T14:08:43Z</time>
      </trkpt>
      <trkpt lat="48.5818" lon="-2.51117">
        <ele>-1000</ele>
        <time>2007-05-30T14:08:43Z</time>
      </trkpt>
      <trkpt lat="48.58294" lon="-2.51033">
        <ele>-1000</ele>
        <time>2007-05-30T14:08:43Z</time>
      </trkpt>
      <trkpt lat="48.58346" lon="-2.5105">
        <ele>-1000</ele>
        <time>2007-05-30T14:08:43Z</time>
      </trkpt>
      <trkpt lat="48.58374" lon="-2.51032">
        <ele>-1000</ele>
        <time>2007-05-30T14:08:43Z</time>
      </trkpt>
      <trkpt lat="48.5841" lon="-2.5097">
        <ele>-1000</ele>
        <time>2007-05-30T14:08:43Z</time>
      </trkpt>
      <trkpt lat="48.58461" lon="-2.50944">
        <ele>-1000</ele>
        <time>2007-05-30T14:08:43Z</time>
      </trkpt>
      <trkpt lat="48.58534" lon="-2.50956">
        <ele>-1000</ele>
        <time>2007-05-30T14:08:43Z</time>
      </trkpt>
      <trkpt lat="48.58601" lon="-2.51019">
        <ele>-1000</ele>
        <time>2007-05-30T14:08:43Z</time>
      </trkpt>
      <trkpt lat="48.58644" lon="-2.51112">
        <ele>-1000</ele>
        <time>2007-05-30T14:08:43Z</time>
      </trkpt>
      <trkpt lat="48.58619" lon="-2.5117">
        <ele>-1000</ele>
        <time>2007-05-30T14:08:43Z</time>
      </trkpt>
      <trkpt lat="48.58597" lon="-2.5125">
        <ele>-1000</ele>
        <time>2007-05-30T14:08:43Z</time>
      </trkpt>
      <trkpt lat="48.58581" lon="-2.51335">
        <ele>-1000</ele>
        <time>2007-05-30T14:08:43Z</time>
      </trkpt>
      <trkpt lat="48.58574" lon="-2.51553">
        <ele>-1000</ele>
        <time>2007-05-30T14:08:43Z</time>
      </trkpt>
      <trkpt lat="48.58537" lon="-2.51767">
        <ele>-1000</ele>
        <time>2007-05-30T14:08:43Z</time>
      </trkpt>
      <trkpt lat="48.58702" lon="-2.51902">
        <ele>-1000</ele>
        <time>2007-05-30T14:08:43Z</time>
      </trkpt>
      <trkpt lat="48.58786" lon="-2.51956">
        <ele>-1000</ele>
        <time>2007-05-30T14:08:43Z</time>
      </trkpt>
      <trkpt lat="48.58923" lon="-2.51973">
        <ele>-1000</ele>
        <time>2007-05-30T14:08:43Z</time>
      </trkpt>
      <trkpt lat="48.59024" lon="-2.5204">
        <ele>-1000</ele>
        <time>2007-05-30T14:08:43Z</time>
      </trkpt>
      <trkpt lat="48.59031" lon="-2.51988">
        <ele>-1000</ele>
        <time>2007-05-30T14:08:43Z</time>
      </trkpt>
      <trkpt lat="48.59029" lon="-2.51874">
        <ele>-1000</ele>
        <time>2007-05-30T14:08:43Z</time>
      </trkpt>
      <trkpt lat="48.59057" lon="-2.51813">
        <ele>-1000</ele>
        <time>2007-05-30T14:08:43Z</time>
      </trkpt>
      <trkpt lat="48.59094" lon="-2.51751">
        <ele>-1000</ele>
        <time>2007-05-30T14:08:43Z</time>
      </trkpt>
      <trkpt lat="48.59116" lon="-2.51623">
        <ele>-1000</ele>
        <time>2007-05-30T14:08:43Z</time>
      </trkpt>
      <trkpt lat="48.59147" lon="-2.51548">
        <ele>-1000</ele>
        <time>2007-05-30T14:08:43Z</time>
      </trkpt>
      <trkpt lat="48.59161" lon="-2.51507">
        <ele>-1000</ele>
        <time>2007-05-30T14:08:43Z</time>
      </trkpt>
      <trkpt lat="48.59205" lon="-2.51529">
        <ele>-1000</ele>
        <time>2007-05-30T14:08:43Z</time>
      </trkpt>
      <trkpt lat="48.59354" lon="-2.51513">
        <ele>-1000</ele>
        <time>2007-05-30T14:08:43Z</time>
      </trkpt>
      <trkpt lat="48.59419" lon="-2.51482">
        <ele>-1000</ele>
        <time>2007-05-30T14:08:43Z</time>
      </trkpt>
      <trkpt lat="48.59449" lon="-2.51411">
        <ele>-1000</ele>
        <time>2007-05-30T14:08:43Z</time>
      </trkpt>
      <trkpt lat="48.59472" lon="-2.51386">
        <ele>-1000</ele>
        <time>2007-05-30T14:08:43Z</time>
      </trkpt>
      <trkpt lat="48.59467" lon="-2.51328">
        <ele>-1000</ele>
        <time>2007-05-30T14:08:43Z</time>
      </trkpt>
      <trkpt lat="48.59455" lon="-2.51262">
        <ele>-1000</ele>
        <time>2007-05-30T14:08:43Z</time>
      </trkpt>
      <trkpt lat="48.59471" lon="-2.51128">
        <ele>-1000</ele>
        <time>2007-05-30T14:08:43Z</time>
      </trkpt>
      <trkpt lat="48.59467" lon="-2.51021">
        <ele>-1000</ele>
        <time>2007-05-30T14:08:43Z</time>
      </trkpt>
      <trkpt lat="48.59533" lon="-2.50829">
        <ele>-1000</ele>
        <time>2007-05-30T14:08:43Z</time>
      </trkpt>
      <trkpt lat="48.59615" lon="-2.50709">
        <ele>-1000</ele>
        <time>2007-05-30T14:08:43Z</time>
      </trkpt>
      <trkpt lat="48.59652" lon="-2.50601">
        <ele>-1000</ele>
        <time>2007-05-30T14:08:43Z</time>
      </trkpt>
      <trkpt lat="48.59717" lon="-2.50501">
        <ele>-1000</ele>
        <time>2007-05-30T14:08:43Z</time>
      </trkpt>
      <trkpt lat="48.59789" lon="-2.50366">
        <ele>-1000</ele>
        <time>2007-05-30T14:08:43Z</time>
      </trkpt>
      <trkpt lat="48.59794" lon="-2.50324">
        <ele>-1000</ele>
        <time>2007-05-30T14:08:43Z</time>
      </trkpt>
      <trkpt lat="48.59842" lon="-2.50286">
        <ele>-1000</ele>
        <time>2007-05-30T14:08:43Z</time>
      </trkpt>
      <trkpt lat="48.60001" lon="-2.50221">
        <ele>-1000</ele>
        <time>2007-05-30T14:08:43Z</time>
      </trkpt>
      <trkpt lat="48.6008" lon="-2.5009">
        <ele>-1000</ele>
        <time>2007-05-30T14:08:43Z</time>
      </trkpt>
      <trkpt lat="48.60091" lon="-2.49917">
        <ele>-1000</ele>
        <time>2007-05-30T14:08:43Z</time>
      </trkpt>
      <trkpt lat="48.60072" lon="-2.49894">
        <ele>-1000</ele>
        <time>2007-05-30T14:08:43Z</time>
      </trkpt>
      <trkpt lat="48.59994" lon="-2.49908">
        <ele>-1000</ele>
        <time>2007-05-30T14:08:43Z</time>
      </trkpt>
      <trkpt lat="48.59926" lon="-2.49894">
        <ele>-1000</ele>
        <time>2007-05-30T14:08:43Z</time>
      </trkpt>
      <trkpt lat="48.5987" lon="-2.49819">
        <ele>-1000</ele>
        <time>2007-05-30T14:08:43Z</time>
      </trkpt>
      <trkpt lat="48.59814" lon="-2.4977">
        <ele>-1000</ele>
        <time>2007-05-30T14:08:43Z</time>
      </trkpt>
      <trkpt lat="48.59778" lon="-2.49683">
        <ele>-1000</ele>
        <time>2007-05-30T14:08:43Z</time>
      </trkpt>
      <trkpt lat="48.59744" lon="-2.49632">
        <ele>-1000</ele>
        <time>2007-05-30T14:08:43Z</time>
      </trkpt>
      <trkpt lat="48.59792" lon="-2.49544">
        <ele>-1000</ele>
        <time>2007-05-30T14:08:43Z</time>
      </trkpt>
      <trkpt lat="48.59829" lon="-2.49398">
        <ele>-1000</ele>
        <time>2007-05-30T14:08:43Z</time>
      </trkpt>
      <trkpt lat="48.59888" lon="-2.49318">
        <ele>-1000</ele>
        <time>2007-05-30T14:08:43Z</time>
      </trkpt>
      <trkpt lat="48.59917" lon="-2.49278">
        <ele>-1000</ele>
        <time>2007-05-30T14:08:43Z</time>
      </trkpt>
      <trkpt lat="48.59949" lon="-2.49196">
        <ele>-1000</ele>
        <time>2007-05-30T14:08:43Z</time>
      </trkpt>
      <trkpt lat="48.60044" lon="-2.49206">
        <ele>-1000</ele>
        <time>2007-05-30T14:08:43Z</time>
      </trkpt>
      <trkpt lat="48.601" lon="-2.49225">
        <ele>-1000</ele>
        <time>2007-05-30T14:08:43Z</time>
      </trkpt>
      <trkpt lat="48.60143" lon="-2.4926">
        <ele>-1000</ele>
        <time>2007-05-30T14:08:43Z</time>
      </trkpt>
      <trkpt lat="48.60187" lon="-2.4917">
        <ele>-1000</ele>
        <time>2007-05-30T14:08:43Z</time>
      </trkpt>
      <trkpt lat="48.60217" lon="-2.49138">
        <ele>-1000</ele>
        <time>2007-05-30T14:08:43Z</time>
      </trkpt>
      <trkpt lat="48.60267" lon="-2.49132">
        <ele>-1000</ele>
        <time>2007-05-30T14:08:43Z</time>
      </trkpt>
      <trkpt lat="48.60319" lon="-2.4911">
        <ele>-1000</ele>
        <time>2007-05-30T14:08:43Z</time>
      </trkpt>
      <trkpt lat="48.60371" lon="-2.49128">
        <ele>-1000</ele>
        <time>2007-05-30T14:08:43Z</time>
      </trkpt>
      <trkpt lat="48.60382" lon="-2.49064">
        <ele>-1000</ele>
        <time>2007-05-30T14:08:43Z</time>
      </trkpt>
      <trkpt lat="48.60438" lon="-2.48994">
        <ele>-1000</ele>
        <time>2007-05-30T14:08:43Z</time>
      </trkpt>
      <trkpt lat="48.60488" lon="-2.48954">
        <ele>-1000</ele>
        <time>2007-05-30T14:08:43Z</time>
      </trkpt>
      <trkpt lat="48.60511" lon="-2.48904">
        <ele>-1000</ele>
        <time>2007-05-30T14:08:43Z</time>
      </trkpt>
      <trkpt lat="48.60521" lon="-2.48814">
        <ele>-1000</ele>
        <time>2007-05-30T14:08:43Z</time>
      </trkpt>
      <trkpt lat="48.60522" lon="-2.48701">
        <ele>-1000</ele>
        <time>2007-05-30T14:08:43Z</time>
      </trkpt>
      <trkpt lat="48.60537" lon="-2.48643">
        <ele>-1000</ele>
        <time>2007-05-30T14:08:43Z</time>
      </trkpt>
      <trkpt lat="48.60566" lon="-2.4859">
        <ele>-1000</ele>
        <time>2007-05-30T14:08:43Z</time>
      </trkpt>
      <trkpt lat="48.60598" lon="-2.48563">
        <ele>-1000</ele>
        <time>2007-05-30T14:08:43Z</time>
      </trkpt>
      <trkpt lat="48.60638" lon="-2.48637">
        <ele>-1000</ele>
        <time>2007-05-30T14:08:43Z</time>
      </trkpt>
      <trkpt lat="48.60632" lon="-2.48772">
        <ele>-1000</ele>
        <time>2007-05-30T14:08:43Z</time>
      </trkpt>
      <trkpt lat="48.60683" lon="-2.48883">
        <ele>-1000</ele>
        <time>2007-05-30T14:08:43Z</time>
      </trkpt>
      <trkpt lat="48.60778" lon="-2.48898">
        <ele>-1000</ele>
        <time>2007-05-30T14:08:43Z</time>
      </trkpt>
      <trkpt lat="48.6079" lon="-2.48572">
        <ele>-1000</ele>
        <time>2007-05-30T14:08:43Z</time>
      </trkpt>
      <trkpt lat="48.60824" lon="-2.48448">
        <ele>-1000</ele>
        <time>2007-05-30T14:08:43Z</time>
      </trkpt>
      <trkpt lat="48.60941" lon="-2.48122">
        <ele>-1000</ele>
        <time>2007-05-30T14:08:43Z</time>
      </trkpt>
      <trkpt lat="48.60969" lon="-2.4812">
        <ele>-1000</ele>
        <time>2007-05-30T14:08:43Z</time>
      </trkpt>
      <trkpt lat="48.61006" lon="-2.48057">
        <ele>-1000</ele>
        <time>2007-05-30T14:08:43Z</time>
      </trkpt>
      <trkpt lat="48.61007" lon="-2.48011">
        <ele>-1000</ele>
        <time>2007-05-30T14:08:43Z</time>
      </trkpt>
      <trkpt lat="48.61042" lon="-2.47979">
        <ele>-1000</ele>
        <time>2007-05-30T14:08:43Z</time>
      </trkpt>
      <trkpt lat="48.61232" lon="-2.47734">
        <ele>-1000</ele>
        <time>2007-05-30T14:08:43Z</time>
      </trkpt>
      <trkpt lat="48.61322" lon="-2.4765">
        <ele>-1000</ele>
        <time>2007-05-30T14:08:43Z</time>
      </trkpt>
      <trkpt lat="48.61494" lon="-2.47305">
        <ele>-1000</ele>
        <time>2007-05-30T14:08:43Z</time>
      </trkpt>
      <trkpt lat="48.61586" lon="-2.47147">
        <ele>-1000</ele>
        <time>2007-05-30T14:08:43Z</time>
      </trkpt>
      <trkpt lat="48.61619" lon="-2.47135">
        <ele>-1000</ele>
        <time>2007-05-30T14:08:43Z</time>
      </trkpt>
      <trkpt lat="48.6165" lon="-2.47102">
        <ele>-1000</ele>
        <time>2007-05-30T14:08:43Z</time>
      </trkpt>
      <trkpt lat="48.61705" lon="-2.46982">
        <ele>-1000</ele>
        <time>2007-05-30T14:08:43Z</time>
      </trkpt>
      <trkpt lat="48.61845" lon="-2.46805">
        <ele>-1000</ele>
        <time>2007-05-30T14:08:43Z</time>
      </trkpt>
      <trkpt lat="48.6193" lon="-2.46609">
        <ele>-1000</ele>
        <time>2007-05-30T14:08:43Z</time>
      </trkpt>
      <trkpt lat="48.62168" lon="-2.46558">
        <ele>-1000</ele>
        <time>2007-05-30T14:08:43Z</time>
      </trkpt>
      <trkpt lat="48.62191" lon="-2.46568">
        <ele>-1000</ele>
        <time>2007-05-30T14:08:43Z</time>
      </trkpt>
      <trkpt lat="48.62216" lon="-2.46523">
        <ele>-1000</ele>
        <time>2007-05-30T14:08:43Z</time>
      </trkpt>
      <trkpt lat="48.62228" lon="-2.46471">
        <ele>-1000</ele>
        <time>2007-05-30T14:08:43Z</time>
      </trkpt>
      <trkpt lat="48.62254" lon="-2.46452">
        <ele>-1000</ele>
        <time>2007-05-30T14:08:43Z</time>
      </trkpt>
      <trkpt lat="48.62282" lon="-2.46389">
        <ele>-1000</ele>
        <time>2007-05-30T14:08:43Z</time>
      </trkpt>
      <trkpt lat="48.62285" lon="-2.46329">
        <ele>-1000</ele>
        <time>2007-05-30T14:08:43Z</time>
      </trkpt>
      <trkpt lat="48.62386" lon="-2.4607">
        <ele>-1000</ele>
        <time>2007-05-30T14:08:43Z</time>
      </trkpt>
      <trkpt lat="48.62408" lon="-2.46065">
        <ele>-1000</ele>
        <time>2007-05-30T14:08:43Z</time>
      </trkpt>
      <trkpt lat="48.62451" lon="-2.45884">
        <ele>-1000</ele>
        <time>2007-05-30T14:08:43Z</time>
      </trkpt>
      <trkpt lat="48.62506" lon="-2.45828">
        <ele>-1000</ele>
        <time>2007-05-30T14:08:43Z</time>
      </trkpt>
      <trkpt lat="48.62522" lon="-2.45781">
        <ele>-1000</ele>
        <time>2007-05-30T14:08:43Z</time>
      </trkpt>
      <trkpt lat="48.62491" lon="-2.45775">
        <ele>-1000</ele>
        <time>2007-05-30T14:08:43Z</time>
      </trkpt>
      <trkpt lat="48.62434" lon="-2.45743">
        <ele>-1000</ele>
        <time>2007-05-30T14:08:43Z</time>
      </trkpt>
      <trkpt lat="48.62372" lon="-2.45683">
        <ele>-1000</ele>
        <time>2007-05-30T14:08:43Z</time>
      </trkpt>
      <trkpt lat="48.62339" lon="-2.45638">
        <ele>-1000</ele>
        <time>2007-05-30T14:08:43Z</time>
      </trkpt>
      <trkpt lat="48.62294" lon="-2.4556">
        <ele>-1000</ele>
        <time>2007-05-30T14:08:43Z</time>
      </trkpt>
      <trkpt lat="48.62248" lon="-2.4551">
        <ele>-1000</ele>
        <time>2007-05-30T14:08:43Z</time>
      </trkpt>
      <trkpt lat="48.6232" lon="-2.45419">
        <ele>-1000</ele>
        <time>2007-05-30T14:08:43Z</time>
      </trkpt>
      <trkpt lat="48.62342" lon="-2.45369">
        <ele>-1000</ele>
        <time>2007-05-30T14:08:43Z</time>
      </trkpt>
      <trkpt lat="48.62399" lon="-2.45332">
        <ele>-1000</ele>
        <time>2007-05-30T14:08:43Z</time>
      </trkpt>
      <trkpt lat="48.62312" lon="-2.45169">
        <ele>-1000</ele>
        <time>2007-05-30T14:08:43Z</time>
      </trkpt>
      <trkpt lat="48.62356" lon="-2.4513">
        <ele>-1000</ele>
        <time>2007-05-30T14:08:43Z</time>
      </trkpt>
      <trkpt lat="48.62461" lon="-2.44808">
        <ele>-1000</ele>
        <time>2007-05-30T14:08:43Z</time>
      </trkpt>
      <trkpt lat="48.62458" lon="-2.44774">
        <ele>-1000</ele>
        <time>2007-05-30T14:08:43Z</time>
      </trkpt>
      <trkpt lat="48.62447" lon="-2.44726">
        <ele>-1000</ele>
        <time>2007-05-30T14:08:43Z</time>
      </trkpt>
      <trkpt lat="48.62528" lon="-2.44599">
        <ele>-1000</ele>
        <time>2007-05-30T14:08:43Z</time>
      </trkpt>
      <trkpt lat="48.62524" lon="-2.44568">
        <ele>-1000</ele>
        <time>2007-05-30T14:08:43Z</time>
      </trkpt>
      <trkpt lat="48.62478" lon="-2.44482">
        <ele>-1000</ele>
        <time>2007-05-30T14:08:43Z</time>
      </trkpt>
      <trkpt lat="48.62561" lon="-2.44367">
        <ele>-1000</ele>
        <time>2007-05-30T14:08:43Z</time>
      </trkpt>
      <trkpt lat="48.62604" lon="-2.44331">
        <ele>-1000</ele>
        <time>2007-05-30T14:08:43Z</time>
      </trkpt>
      <trkpt lat="48.6277" lon="-2.44272">
        <ele>-1000</ele>
        <time>2007-05-30T14:08:43Z</time>
      </trkpt>
      <trkpt lat="48.62825" lon="-2.44225">
        <ele>-1000</ele>
        <time>2007-05-30T14:08:43Z</time>
      </trkpt>
      <trkpt lat="48.62919" lon="-2.44183">
        <ele>-1000</ele>
        <time>2007-05-30T14:08:43Z</time>
      </trkpt>
      <trkpt lat="48.6294" lon="-2.44111">
        <ele>-1000</ele>
        <time>2007-05-30T14:08:43Z</time>
      </trkpt>
      <trkpt lat="48.6296" lon="-2.44074">
        <ele>-1000</ele>
        <time>2007-05-30T14:08:43Z</time>
      </trkpt>
      <trkpt lat="48.62995" lon="-2.44059">
        <ele>-1000</ele>
        <time>2007-05-30T14:08:43Z</time>
      </trkpt>
      <trkpt lat="48.63058" lon="-2.44113">
        <ele>-1000</ele>
        <time>2007-05-30T14:08:43Z</time>
      </trkpt>
      <trkpt lat="48.63077" lon="-2.44113">
        <ele>-1000</ele>
        <time>2007-05-30T14:08:43Z</time>
      </trkpt>
      <trkpt lat="48.63111" lon="-2.44054">
        <ele>-1000</ele>
        <time>2007-05-30T14:08:43Z</time>
      </trkpt>
      <trkpt lat="48.63145" lon="-2.44031">
        <ele>-1000</ele>
        <time>2007-05-30T14:08:43Z</time>
      </trkpt>
    </trkseg>
  </trk>
</gpx>